TUSUR GO (RS78S)

Last updated on Fri May 09 2025 00:03:04 GMT+0000 (Coordinated Universal Time)

1 61782U 24199AZ 25128.53392822 .00027552 00000+0 80743-3 0 9996 2 61782 97.3583 357.4832 0012509 311.6155 48.4016 15.35095641 72047
UTC large
Height (km)
Speed (km/s)
/
Latitude / Longitude
Inclination (degrees)
Orbital Period (minutes)
Azimuth
Elevation
Range (km)
Doppler Factor

Next 0 passes for location: London (51.5072 / 0.1276)

Sorry there are no passes over London.